Home > Weather > Karachi > Past weeks

Flag for Pakistan Past Weather in Karachi, Sindh, Pakistan — Yesterday and Last 2 Weeks

Now
86 °F

Broken clouds.


Feels Like: 93 °F
Forecast: 82 / 89 °F
Wind: 16 mph from Southwest

Location: Karachi Airport

Current Time: Jul 28, 2016 at 7:34:44 PM

Latest Report: Jul 28, 2016 at 6:55 PM


Visibility: 4 mi

Pressure: 29.59 "Hg

Humidity: 66%

Dew Point: 73 °F

Location of KarachiLocation

Past Weather in Karachi — Graph

°F

Karachi Temperature Yesterday

Maximum temperature yesterday: 91 °F (at 10:55 AM)
Minimum temperature yesterday: 82 °F (at 4:25 AM)
Average temperature yesterday: 87 °F

High & Low Weather Summary for the Past Weeks

 TemperatureHumidityPressure
High95 °F (Jul 25, 12:25 PM)89% (Jul 18, 3:55 AM)29.68 "Hg (Jul 18, 3:55 AM)
Low81 °F (Jul 18, 3:55 AM)47% (Jul 17, 12:25 PM)29.47 "Hg (Jul 14, 1:59 AM)
Average86 °F67%29.58 "Hg
* Reported Jul 13 8:55 PM — Jul 28 5:55 PM, Karachi, Weather by CustomWeather, © 2016

Note: Actual official high and low records may vary slightly from our data, if they occured in-between our weather recording intervals... More about our weather records

Advertising

Karachi Weather History for the Previous 24 Hours

Scroll right to see more
 ConditionsComfort  
Time TempWeatherWind HumidityBarometerVisibility
5:55 PM
Thu, Jul 28
88 °FPartly sunny.17 mph62%29.59 "Hg4 mi
2:55 PM91 °FPartly sunny.17 mph56%29.62 "Hg4 mi
2:25 PM91 °FScattered clouds.16 mph56%29.62 "Hg4 mi
12:55 PM91 °FScattered clouds.20 mph56%29.65 "Hg4 mi
12:25 PM91 °FBroken clouds.16 mph56%29.65 "Hg4 mi
11:55 AM90 °FBroken clouds.17 mph59%29.65 "Hg4 mi
10:55 AM90 °FBroken clouds.18 mph59%29.68 "Hg4 mi
10:25 AM90 °FBroken clouds.18 mph55%29.68 "Hg4 mi
9:55 AM90 °FScattered clouds.17 mph59%29.68 "Hg4 mi
8:55 AM86 °FPartly sunny.13 mph66%29.68 "Hg4 mi
8:25 AM86 °FPartly sunny.13 mph66%29.68 "Hg4 mi
7:55 AM84 °FScattered clouds.12 mph70%29.68 "Hg4 mi
7:25 AM84 °FScattered clouds.9 mph70%29.68 "Hg4 mi
6:55 AM84 °FBroken clouds.10 mph70%29.68 "Hg4 mi
6:25 AM82 °FBroken clouds.9 mph74%29.65 "Hg4 mi
5:55 AM82 °FPartly cloudy.12 mph74%29.65 "Hg4 mi
5:25 AM82 °FPartly cloudy.10 mph74%29.62 "Hg4 mi
4:55 AM82 °FPartly cloudy.10 mph74%29.62 "Hg4 mi
4:25 AM82 °FPartly cloudy.12 mph79%29.62 "Hg4 mi
3:55 AM82 °FPassing clouds.12 mph79%29.62 "Hg4 mi
3:25 AM82 °FPassing clouds.9 mph84%29.62 "Hg4 mi
2:55 AM82 °FRain. Partly cloudy.12 mph79%29.62 "Hg3 mi
2:25 AM82 °FPassing clouds.12 mph79%29.62 "Hg4 mi
1:55 AM82 °FPassing clouds.12 mph79%29.62 "Hg4 mi
1:25 AM84 °FPassing clouds.12 mph74%29.62 "Hg4 mi
12:55 AM84 °FPassing clouds.12 mph70%29.62 "Hg4 mi
12:25 AM84 °FPassing clouds.12 mph70%29.65 "Hg4 mi
11:55 PM
Wed, Jul 27
84 °FPassing clouds.12 mph70%29.65 "Hg4 mi
11:25 PM84 °FPassing clouds.13 mph70%29.65 "Hg4 mi
10:55 PM84 °FPassing clouds.14 mph70%29.65 "Hg4 mi
10:25 PM84 °FPassing clouds.13 mph70%29.65 "Hg4 mi
9:55 PM84 °FPassing clouds.15 mph66%29.65 "Hg4 mi
9:25 PM84 °FPassing clouds.15 mph66%29.65 "Hg4 mi
Weather by CustomWeather, © 2016

See weather overviewHow to use our weather pages